Monticello, Iowa
Current Conditions -  °F | °C
As of 11:15 PM on Monday 22 Dec 2014 (Local Time) from KMXO Reporting Station
Light Rain Light Rain  
Wind Chill: 34°   Ceiling: 400
Heat Index: 39°   Visibility: 5mi
Dew Point: 39°   Wind: 8mph
Humidity: 100%   Direction: 70°ENE
Pressure: 29.49"   Gusts: NA
Location:  42.24°N, 91.19°W
Report Text: KMXO 230515Z AUTO 07007KT 5SM -RA OVC004 04/04 A2949 RMK AO2
Loading
Personal Weather Stations






























Interactive Weather Map New forecast layout! Learn more

10-Day Weather Forecast

Advertisements
Track Severe Weather on mobile